Regional Weather Roundup
Issued by NWS Sterling, VA

Home | Current Version | Previous Version | Graphics & Text | Print | Product List | Glossary On
Versions: 1 2 3 4 5 6 7 8 9 10 11 12 13 14 15 16 17 18 19 20 21 22 23 24 25 26 27 28
000
ASUS41 KLWX 271711
RWRLWX

REGIONAL WEATHER ROUNDUP
NATIONAL WEATHER SERVICE BALTIMORE MD/WASHINGTON DC
100 PM EDT THU APR 27 2017

Note: "FAIR" indicates few or no clouds below 12,000 feet
with no significant weather and/or obstructions to visibility.
 TC=TEMPERATURE CELSIUS

 * =Non NWS site. Station does not report precipitation (e.g. rain,
    snow, etc.), thunder, or fog.

DCZ001-MDZ009-015-VAZ040>042-051-053>054-271800-
WASHINGTON METRO

CITY           SKY/WX    TMP DP  RH WIND       PRES   REMARKS
WASHINGTON NAT CLOUDY    78  66  66 S8        29.82F
DULLES         CLOUDY    75  63  66 SW6       29.81F
ANDREWS AFB    CLOUDY    78  64  61 S12       29.82F
FT BELVOIR     CLOUDY    78  65  63 SE7       29.81F
QUANTICO       CLOUDY    74  68  81 S8        29.82F
COLLEGE PARK*  CLOUDY    78  63  59 S5        29.81F
LEESBURG*      CLOUDY    73  66  78 S6        29.83F
MANASSAS*        N/A     78  66  66 VRB5      29.81F

$$

MDZ006>007-011-014-271800-
BALTIMORE METRO

CITY           SKY/WX    TMP DP  RH WIND       PRES   REMARKS
BWI AIRPORT    CLOUDY    75  65  70 VRB3      29.82F
MD SCIENCE CTR   N/A     72  61  68 MISG      29.84F
MARTIN STATE   PTSUNNY   72  68  88 SE7       29.86F
ANNAPOLIS      CLOUDY    67  63  87 SE10      29.84F FOG
FORT MEADE*    CLOUDY    77  64  65 E8        29.84F

$$

MDZ012-015-019>023-271800-
MARYLAND EASTERN SHORE

CITY           SKY/WX    TMP DP  RH WIND       PRES   REMARKS
OCEAN CITY     MOSUNNY   69  61  75 S8        29.89F
SALISBURY      SUNNY     80  67  64 SW8       29.87F
BAY BRIDGE AP* CLOUDY    75  64  69 S7        29.84F HAZE
CAMBRIDGE*     SUNNY     79  64  61 S9        29.85F
EASTON*        MOSUNNY   81  64  57 SW8       29.89F

$$

MDZ017>025-271800-
SOUTHERN MARYLAND

CITY           SKY/WX    TMP DP  RH WIND       PRES   REMARKS
PATUXENT RIVER CLOUDY    80  68  66 S8        29.84F
ST INIGOES     CLOUDY    81  65  58 S8        29.84F
LEONARDTOWN*   CLOUDY    79  63  57 S6        29.85F

$$

MDZ003>005-271800-
NORTH CENTRAL MARYLAND

CITY           SKY/WX    TMP DP  RH WIND       PRES   REMARKS
FREDERICK*     PTSUNNY   72  70  94 CALM      29.85F FOG
HAGERSTOWN APT MOSUNNY   72  62  71 SE9       29.79F
WESTMINSTER*   CLOUDY    75  64  69 SE7       29.83F

$$

MDZ501>502-271800-
WESTERN MARYLAND

CITY           SKY/WX    TMP DP  RH WIND       PRES   REMARKS
OAKLAND*         N/A     70  55  60 SE14      29.78F
CUMBERLAND*    CLOUDY    73  63  68 CALM      29.78F

$$

VAZ025>031-271800-
SHENANDOAH VALLEY

CITY           SKY/WX    TMP DP  RH WIND       PRES   REMARKS
WINCHESTER*    MOSUNNY   70  61  73 E7        29.77F
FRONT ROYAL*   MOSUNNY   73  63  68 S8        29.76F
LURAY*         CLOUDY    79  61  53 SW8       29.77F
NEW MARKET*    CLOUDY    77  56  48 SW10G20   29.75F
STAUNTON*      PTSUNNY   77  56  47 S9G18     29.81F
WAYNESBORO*    PTSUNNY   75  55  49 SE12G17   29.83S

$$

WVZ021-048>050-054>055-271800-
EASTERN WEST VIRGINIA PANHANDLE

CITY           SKY/WX    TMP DP  RH WIND       PRES   REMARKS
MARTINSBURG    MOSUNNY   71  62  73 E8        29.78F
PETERSBURG*    CLOUDY    82  51  34 S13G23    29.74F

$$

VAZ036>039-050-271800-
CENTRAL FOOTHILLS

CITY           SKY/WX    TMP DP  RH WIND       PRES   REMARKS
CHARLOTTESVILL CLOUDY    78  62  57 S8        29.80F
CULPEPER*      CLOUDY    79  64  59 SW14      29.81F
ORANGE*        MOSUNNY   77  61  57 SW13G22   29.81F
GORDONSVILLE*  CLOUDY    77  62  58 SW14G21   29.81F
WARRENTON*     CLOUDY    81  60  48 SW12      29.80F

$$

VAZ055>057-271800-
NORTH AND CENTRAL PIEDMONT

CITY           SKY/WX    TMP DP  RH WIND       PRES   REMARKS
FREDERICKSBRG* CLOUDY    82  64  55 S9        29.80F
STAFFORD*      CLOUDY    79  62  57 S8G18     29.85F

$$

NCZ024-NYZ072-PAZ021-071-VAZ022-071-271800-
OTHER REGIONAL OBSERVATIONS

CITY           SKY/WX    TMP DP  RH WIND       PRES   REMARKS
NEW YORK CITY  CLOUDY    67  58  72 S9        29.92F
PHILADELPHIA   PTSUNNY   76  62  62 S6        29.87F
PITTSBURGH     CLOUDY    79  54  41 S10       29.65F
ROANOKE        MOSUNNY   77  55  46 S14G22    29.82F
RICHMOND       CLOUDY    80  65  59 S10       29.83F
RALEIGH        PTSUNNY   80  58  46 SW13G23   29.88F

$$

ANZ530>537-271800-
MARINE OBSERVATIONS

STATION/POSITION TIME  TEMP    WIND        PRES
                       AIR SEA DIR/SP/G
                 (UTC) (F)     (DEG/KT/KT) (MB)
THOMAS PT LIGHT  1700   64 58  130/  3/  3   N/A
BALT KEY BRIDGE  1648   67     110/  9/ 10 1010.5F
COVE POINT       1642   62     160/ 12/ 12 1011.4F
LEWISETTA        1642   78 64  240/  9/ 14 1010.5F
SOLOMONS ISLAND  1642   76 60  200/ 13/ 16   N/A
PINEY POINT      1648          220/ 11/ 12   N/A

$$





USA.gov is the U.S. government's official web portal to all federal, state and local government web resources and services.